INTELSAT 1R (IS-1R) (26608 NORAD) Tracking and Keplerian Element Data

This shows tracking and keplerian element data for the satellite.

Feedback or suggestion? Click here.




ElementValue
Catalog26608
NameINTELSAT 1R (IS-1R)
Epoch Orbit2298
Epoch Day165.71955962
Epoch Year2021
RAAN83.5479
Inclination3.5926
Eccentricity5.26E-05
Argument of Perigee269.4226
Mean Anonmoly326.3807
Mean Motion1.00271168
Decay Rate-1.31E-06
L11 26608U 00072A 21165.71955962 -.00000131 00000-0 00000-0 0 9996
L22 26608 3.5926 83.5479 0000526 269.4226 326.3807 1.00271168 22985

Live tracking and technical data element details for INTELSAT 1R (IS-1R) (NORAD 26608). INTELSAT 1R (IS-1R) can be tracked NOW for your location showing map with azimuth and elevation plus other details from your city location.

Track the satellite on the map from your city or location and see movement details for azimuth, elevation, latitude, longitude, range, height, and movement on the map or in text.







IsCatalogInMostPopularTable: catalog: 26608, numindb: 411
Update: records affected: 1



GetName: 26608 INTELSAT 1R (IS-1R)

Hit Count: updated at: Tue, 15 Jun 2021 22:36:41 GMT